| time (UTC) | temp C | wind direction | speed KPH | gust KPH | rain 1hr cm | rain 24hr cm | rain mn cm | humidity % | barometer mb |
| 20260507025959 | 8 | 0.0 | 0.0 | 0.00 | 0.00 | 0.00 | 83 | 1008.8 | |
| 20260507024959 | 8 | 0.0 | 0.0 | 0.00 | 0.00 | 0.00 | 84 | 1008.8 | |
| 20260507024000 | 8 | 0.0 | 0.0 | 0.00 | 0.00 | 0.00 | 84 | 1008.7 | |
| 20260507022959 | 8 | 0.0 | 0.0 | 0.00 | 0.00 | 0.00 | 85 | 1008.7 | |
| 20260507022000 | 8 | 0.0 | 0.0 | 0.00 | 0.00 | 0.00 | 85 | 1008.7 | |
| 20260507021000 | 8 | 0.0 | 0.0 | 0.00 | 0.00 | 0.00 | 85 | 1008.6 | |
| 20260507020000 | 8 | 0.0 | 0.0 | 0.00 | 0.00 | 0.00 | 85 | 1008.6 | |
| 20260507014959 | 8 | 0.0 | 0.0 | 0.00 | 0.00 | 0.00 | 85 | 1008.5 | |
| 20260507013959 | 8 | 0.0 | 0.0 | 0.00 | 0.00 | 0.00 | 86 | 1008.3 | |
| 20260507012959 | 8 | 0.0 | 0.0 | 0.00 | 0.00 | 0.00 | 86 | 1008.3 | |
| 20260507012000 | 8 | 0.0 | 0.0 | 0.00 | 0.00 | 0.00 | 86 | 1008.3 | |
| 20260507011000 | 8 | 0.0 | 0.0 | 0.00 | 0.00 | 0.00 | 86 | 1008.3 | |
| 20260507005959 | 8 | 0.0 | 0.0 | 0.00 | 0.00 | 0.00 | 86 | 1008.2 | |
| 20260507005000 | 8 | 0.0 | 0.0 | 0.00 | 0.00 | 0.00 | 85 | 1008.2 | |
| 20260507004000 | 8 | 0.0 | 0.0 | 0.00 | 0.00 | 0.00 | 86 | 1008.1 | |
| 20260507003000 | 9 | 0.0 | 0.0 | 0.00 | 0.00 | 0.00 | 86 | 1008.2 | |
| 20260507001959 | 9 | 0.0 | 0.0 | 0.00 | 0.00 | 0.00 | 86 | 1008.0 | |
| 20260507001000 | 9 | 0.0 | 0.0 | 0.00 | 0.00 | 0.00 | 86 | 1008.1 | |
| 20260506235959 | 9 | 0.0 | 0.0 | 0.00 | 0.00 | 0.00 | 87 | 1008.1 | |
| 20260506234959 | 9 | 0.0 | 0.0 | 0.00 | 0.00 | 0.00 | 87 | 1008.0 | |
| 20260506233959 | 9 | 0.0 | 0.0 | 0.00 | 0.00 | 0.00 | 88 | 1008.1 | |
| 20260506233000 | 9 | 0.0 | 0.0 | 0.00 | 0.00 | 0.00 | 87 | 1008.0 | |
| 20260506232000 | 9 | 0.0 | 0.0 | 0.00 | 0.00 | 0.00 | 86 | 1008.0 | |
| 20260506231000 | 9 | 0.0 | 0.0 | 0.00 | 0.00 | 0.00 | 85 | 1007.9 | |
| 20260506230000 | 9 | 0.0 | 0.0 | 0.00 | 0.00 | 0.00 | 84 | 1007.8 | |
| 20260506224959 | 9 | 0.0 | 0.0 | 0.00 | 0.00 | 0.00 | 81 | 1007.7 | |
| 20260506223959 | 9 | 0.0 | 0.0 | 0.00 | 0.00 | 0.00 | 81 | 1007.7 | |
| 20260506222959 | 10 | 0.0 | 0.0 | 0.00 | 0.00 | 0.00 | 80 | 1007.7 | |
| 20260506222000 | 10 | 0.0 | 0.0 | 0.00 | 0.00 | 0.00 | 79 | 1007.6 | |
| 20260506220959 | 10 | 0.0 | 0.0 | 0.00 | 0.00 | 0.00 | 79 | 1007.6 | |
| 20260506220000 | 10 | 0.0 | 0.0 | 0.00 | 0.00 | 0.00 | 77 | 1007.4 | |
| 20260506215000 | 10 | 0.0 | 0.0 | 0.00 | 0.00 | 0.00 | 77 | 1007.4 | |
| 20260506213959 | 10 | 0.0 | 0.0 | 0.00 | 0.00 | 0.00 | 77 | 1007.4 | |
| 20260506212959 | 10 | 0.0 | 0.0 | 0.00 | 0.00 | 0.00 | 76 | 1007.3 | |
| 20260506211959 | 10 | 0.0 | 0.0 | 0.00 | 0.00 | 0.00 | 76 | 1007.2 | |
| 20260506211000 | 10 | 0.0 | 0.0 | 0.00 | 0.00 | 0.00 | 76 | 1007.2 | |
| 20260506210000 | 10 | 0.0 | 0.0 | 0.00 | 0.00 | 0.00 | 76 | 1007.0 | |
| 20260506205000 | 10 | 0.0 | 0.0 | 0.00 | 0.00 | 0.00 | 76 | 1007.1 | |
| 20260506204000 | 10 | 0.0 | 0.0 | 0.00 | 0.00 | 0.00 | 75 | 1007.1 | |
| 20260506202959 | 10 | 0.0 | 0.0 | 0.00 | 0.00 | 0.00 | 75 | 1007.0 | |
| 20260506201959 | 10 | 0.0 | 0.0 | 0.00 | 0.00 | 0.00 | 75 | 1007.1 | |
| 20260506200959 | 10 | 0.0 | 0.0 | 0.00 | 0.00 | 0.00 | 75 | 1007.0 | |
| 20260506200000 | 10 | 0.0 | 0.0 | 0.00 | 0.00 | 0.00 | 75 | 1006.8 | |
| 20260506195000 | 11 | 0.0 | 0.0 | 0.00 | 0.00 | 0.00 | 74 | 1006.5 | |
| 20260506194000 | 11 | 0.0 | 0.0 | 0.00 | 0.00 | 0.00 | 74 | 1006.4 | |
| 20260506192959 | 11 | 0.0 | 0.0 | 0.00 | 0.00 | 0.00 | 74 | 1006.2 | |
| 20260506191959 | 11 | 0.0 | 0.0 | 0.00 | 0.00 | 0.00 | 75 | 1006.2 | |
| 20260506191000 | 11 | 0.0 | 0.0 | 0.00 | 0.00 | 0.00 | 75 | 1006.0 | |
| 20260506190000 | 11 | 0.0 | 0.0 | 0.00 | 0.00 | 0.00 | 74 | 1006.0 | |
| 20260506184959 | 11 | 0.0 | 0.0 | 0.00 | 0.00 | 0.00 | 74 | 1006.0 | |
| 20260506184000 | 11 | 0.0 | 0.0 | 0.00 | 0.00 | 0.00 | 74 | 1005.9 | |
| 20260506183000 | 12 | 0.0 | 0.0 | 0.00 | 0.00 | 0.00 | 74 | 1005.7 | |
| 20260506181959 | 12 | 0.0 | 0.0 | 0.00 | 0.00 | 0.00 | 74 | 1005.6 | |
| 20260506180959 | 12 | 0.0 | 0.0 | 0.00 | 0.00 | 0.00 | 74 | 1005.5 | |
| 20260506175959 | 12 | 0.0 | 0.0 | 0.00 | 0.00 | 0.00 | 73 | 1005.3 | |
| 20260506174959 | 12 | 0.0 | 0.0 | 0.00 | 0.00 | 0.00 | 72 | 1005.2 | |
| 20260506174000 | 12 | 0.0 | 0.0 | 0.00 | 0.00 | 0.00 | 69 | 1005.1 | |
| 20260506173000 | 13 | 0.0 | 0.0 | 0.00 | 0.00 | 0.00 | 69 | 1005.1 | |
| 20260506171001 | 13 | 0.0 | 0.0 | 0.00 | 0.00 | 0.00 | 69 | 1004.8 | |
| 20260506165959 | 13 | 0.0 | 0.0 | 0.00 | 0.00 | 0.00 | 69 | 1004.7 | |
| 20260506165000 | 14 | 0.0 | 0.0 | 0.00 | 0.00 | 0.00 | 69 | 1004.6 | |
| 20260506164000 | 14 | 0.0 | 0.0 | 0.00 | 0.00 | 0.00 | 69 | 1004.4 | |
| 20260506162959 | 14 | 0.0 | 0.0 | 0.00 | 0.00 | 0.00 | 69 | 1004.4 | |
| 20260506162000 | 15 | 0.0 | 0.0 | 0.00 | 0.00 | 0.00 | 69 | 1004.5 | |
| 20260506161000 | 15 | 0.0 | 0.0 | 0.00 | 0.00 | 0.00 | 69 | 1004.4 | |
| 20260506155959 | 15 | 0.0 | 0.0 | 0.00 | 0.00 | 0.00 | 69 | 1004.2 | |
| 20260506154959 | 15 | 0.0 | 0.0 | 0.00 | 0.00 | 0.00 | 69 | 1004.3 | |
| 20260506153959 | 15 | 0.0 | 0.0 | 0.00 | 0.00 | 0.00 | 70 | 1004.2 | |
| 20260506152959 | 15 | 0.0 | 0.0 | 0.00 | 0.00 | 0.00 | 70 | 1004.2 | |
| 20260506151959 | 16 | 0.0 | 0.0 | 0.00 | 0.00 | 0.00 | 69 | 1004.1 | |
| 20260506150959 | 16 | 0.0 | 0.0 | 0.00 | 0.00 | 0.00 | 66 | 1004.0 | |
| 20260506145959 | 16 | 0.0 | 0.0 | 0.00 | 0.00 | 0.00 | 69 | 1004.0 | |
| 20260506144959 | 16 | 0.0 | 0.0 | 0.00 | 0.00 | 0.00 | 70 | 1003.8 | |
| 20260506143959 | 16 | 0.0 | 0.0 | 0.00 | 0.00 | 0.00 | 67 | 1003.8 | |
| 20260506142959 | 16 | 0.0 | 0.0 | 0.00 | 0.00 | 0.00 | 69 | 1003.8 | |
| 20260506141959 | 16 | 0.0 | 0.0 | 0.00 | 0.00 | 0.00 | 71 | 1003.7 | |
| 20260506140959 | 16 | 0.0 | 0.0 | 0.00 | 0.00 | 0.00 | 71 | 1003.8 | |
| 20260506135959 | 16 | 0.0 | 0.0 | 0.00 | 0.00 | 0.00 | 67 | 1003.8 | |
| 20260506134959 | 16 | 0.0 | 0.0 | 0.00 | 0.00 | 0.00 | 67 | 1003.8 | |
| 20260506133959 | 16 | 0.0 | 0.0 | 0.00 | 0.00 | 0.00 | 67 | 1003.8 | |
| 20260506133000 | 16 | 0.0 | 0.0 | 0.00 | 0.00 | 0.00 | 68 | 1003.8 | |
| 20260506131959 | 16 | 0.0 | 0.0 | 0.00 | 0.00 | 0.00 | 68 | 1003.8 | |
| 20260506130959 | 16 | 0.0 | 0.0 | 0.00 | 0.00 | 0.00 | 62 | 1003.7 | |
| 20260506125959 | 17 | 0.0 | 0.0 | 0.00 | 0.00 | 0.00 | 62 | 1003.7 | |
| 20260506124959 | 17 | 0.0 | 0.0 | 0.00 | 0.00 | 0.00 | 60 | 1003.7 | |
| 20260506123959 | 17 | 0.0 | 0.0 | 0.00 | 0.00 | 0.00 | 57 | 1003.5 | |
| 20260506122959 | 17 | 0.0 | 0.0 | 0.00 | 0.00 | 0.00 | 57 | 1003.6 | |
| 20260506121959 | 17 | 0.0 | 0.0 | 0.00 | 0.00 | 0.00 | 61 | 1003.7 | |
| 20260506121000 | 17 | 0.0 | 0.0 | 0.00 | 0.00 | 0.00 | 62 | 1003.8 | |
| 20260506115959 | 16 | 0.0 | 0.0 | 0.00 | 0.00 | 0.00 | 62 | 1003.8 | |
| 20260506114959 | 16 | 0.0 | 0.0 | 0.00 | 0.00 | 0.00 | 61 | 1003.8 | |
| 20260506113959 | 17 | 0.0 | 0.0 | 0.00 | 0.00 | 0.00 | 62 | 1003.8 | |
| 20260506112959 | 17 | 0.0 | 0.0 | 0.00 | 0.00 | 0.00 | 63 | 1003.7 | |
| 20260506111959 | 16 | 0.0 | 0.0 | 0.00 | 0.00 | 0.00 | 64 | 1003.7 | |
| 20260506110959 | 16 | 0.0 | 0.0 | 0.00 | 0.00 | 0.00 | 62 | 1003.8 | |
| 20260506105959 | 16 | 0.0 | 0.0 | 0.00 | 0.00 | 0.00 | 65 | 1003.7 | |
| 20260506104959 | 16 | 0.0 | 0.0 | 0.00 | 0.00 | 0.00 | 65 | 1003.6 | |
| 20260506104000 | 16 | 0.0 | 0.0 | 0.00 | 0.00 | 0.00 | 65 | 1003.6 | |
| 20260506103000 | 16 | 0.0 | 0.0 | 0.00 | 0.00 | 0.00 | 67 | 1003.7 | |
| 20260506102000 | 16 | 0.0 | 0.0 | 0.00 | 0.00 | 0.00 | 66 | 1003.7 | |
| 20260506101000 | 16 | 0.0 | 0.0 | 0.00 | 0.00 | 0.00 | 67 | 1003.7 | |
| 20260506100000 | 16 | 0.0 | 0.0 | 0.00 | 0.00 | 0.00 | 68 | 1003.7 | |
| 20260506095000 | 15 | 0.0 | 0.0 | 0.00 | 0.00 | 0.00 | 70 | 1003.7 | |
| 20260506094000 | 15 | 0.0 | 0.0 | 0.00 | 0.00 | 0.00 | 71 | 1003.8 | |
| 20260506093000 | 15 | 0.0 | 0.0 | 0.00 | 0.00 | 0.00 | 72 | 1003.6 | |
| 20260506092000 | 15 | 0.0 | 0.0 | 0.00 | 0.00 | 0.00 | 71 | 1003.5 | |
| 20260506091000 | 15 | 0.0 | 0.0 | 0.00 | 0.00 | 0.00 | 74 | 1003.5 | |
| 20260506090000 | 15 | 0.0 | 0.0 | 0.00 | 0.00 | 0.00 | 78 | 1003.4 | |
| 20260506085000 | 14 | 0.0 | 0.0 | 0.00 | 0.00 | 0.00 | 78 | 1003.5 | |
| 20260506084000 | 14 | 0.0 | 0.0 | 0.00 | 0.00 | 0.00 | 81 | 1003.6 | |
| 20260506083000 | 13 | 0.0 | 0.0 | 0.00 | 0.00 | 0.00 | 81 | 1003.4 | |
| 20260506082000 | 13 | 0.0 | 0.0 | 0.00 | 0.00 | 0.00 | 81 | 1003.4 | |
| 20260506081000 | 13 | 0.0 | 0.0 | 0.00 | 0.00 | 0.00 | 82 | 1003.4 | |
| 20260506073000 | 13 | 0.0 | 0.0 | 0.00 | 0.00 | 0.00 | 85 | 1003.3 | |
| 20260506072000 | 13 | 0.0 | 0.0 | 0.00 | 0.00 | 0.00 | 85 | 1003.3 | |
| 20260506071000 | 13 | 0.0 | 0.0 | 0.00 | 0.00 | 0.00 | 86 | 1003.4 | |
| 20260506062000 | 12 | 0.0 | 0.0 | 0.00 | 0.00 | 0.00 | 89 | 1003.2 | |
| 20260506061000 | 12 | 0.0 | 0.0 | 0.00 | 0.00 | 0.00 | 89 | 1003.2 | |
| 20260506051000 | 12 | 0.0 | 0.0 | 0.00 | 0.00 | 0.00 | 94 | 1003.2 | |
| 20260506045000 | 12 | 0.0 | 0.0 | 0.00 | 0.00 | 0.00 | 94 | 1003.2 | |
| 20260506044000 | 12 | 0.0 | 0.0 | 0.00 | 0.00 | 0.00 | 94 | 1003.3 | |
| 20260506043000 | 12 | 0.0 | 0.0 | 0.00 | 0.00 | 0.00 | 93 | 1003.2 | |
| 20260506042000 | 12 | 0.0 | 0.0 | 0.00 | 0.00 | 0.00 | 93 | 1003.3 | |
| 20260506041000 | 12 | 0.0 | 0.0 | 0.00 | 0.00 | 0.00 | 93 | 1003.2 | |
| 20260506040000 | 12 | 0.0 | 0.0 | 0.00 | 0.00 | 0.00 | 93 | 1003.2 | |
| 20260506035000 | 12 | 0.0 | 0.0 | 0.00 | 0.00 | 0.00 | 93 | 1003.2 | |
| 20260506034000 | 12 | 0.0 | 0.0 | 0.00 | 0.00 | 0.00 | 92 | 1003.2 | |
| 20260506033000 | 12 | 0.0 | 0.0 | 0.00 | 0.00 | 0.00 | 90 | 1003.2 | |
| 20260506032000 | 12 | 0.0 | 0.0 | 0.00 | 0.00 | 0.00 | 89 | 1003.2 | |
| 20260506031000 | 12 | 0.0 | 0.0 | 0.00 | 0.00 | 0.00 | 89 | 1003.3 |